Home > Time Zones > World Clock > Weather > France > Pau > Past weeks

Flag for France Weather past 2 weeks in Pau, France

Now
68 °F

Broken clouds.


Feels Like: 68 °F
Forecast: 53 / 71 °F
Wind: 6 mph from Southwest

Location: Pau Airport

Current Time: Sep 1, 2015 at 2:36:52 PM

Latest Report: Sep 1, 2015 at 2:00 PM


Visibility: N/A

Pressure: 30.15 "Hg

Humidity: 83%

Dew point: 63 °F

Location of PauLocation

Historic Weather in Pau — Graph

°F

Pau temperature yesterday

Maximum temperature yesterday: 82 °F (at 11:00 AM)
Minimum temperature yesterday: 63 °F (at 6:00 PM)
Average temperature yesterday: 73 °F

Past Weeks' High & Low Weather Summary

 TemperatureHumidityPressure
High95 °F (Aug 29, 3:00 PM)100% (Aug 19, 5:00 AM)30.21 "Hg (Aug 19, 5:00 AM)
Low52 °F (Aug 25, 7:30 AM)26% (Aug 26, 5:00 PM)29.62 "Hg (Aug 24, 1:00 AM)
Average72 °F69%29.99 "Hg
* Reported Aug 17 1:00 PM — Sep 1 1:30 PM, Pau, Weather by CustomWeather, © 2015

Note: Actual official high and low records may vary slightly from our data, if they occured in-between our weather recording intervals... More about our weather records

Advertising

Pau weather history for previous 24 hours

 ConditionsComfort  
Time TempWeatherWind HumidityBarometerVisibility
1:30 PM
Tue, Sep 1
66 °FPartly sunny.9 mph88%30.15 "HgN/A
1:00 PM64 °FMore clouds than sun.8 mph94%30.15 "HgN/A
12:30 PM64 °FLight rain. Mostly cloudy.10 mph88%30.15 "Hg5 mi
12:00 PM66 °FPartly sunny.9 mph88%30.15 "HgN/A
11:30 AM68 °FBroken clouds.12 mph83%30.15 "HgN/A
11:00 AM66 °FOvercast.10 mph88%30.12 "HgN/A
10:00 AM66 °FMostly cloudy.7 mph88%30.12 "HgN/A
9:30 AM64 °FLow clouds.8 mph94%30.12 "HgN/A
9:00 AM64 °FMostly cloudy.10 mph94%30.12 "HgN/A
8:30 AM64 °FMostly cloudy.8 mph94%30.12 "HgN/A
8:00 AM63 °FMostly cloudy.7 mph94%30.09 "HgN/A
7:30 AM64 °FPassing clouds.6 mph94%30.09 "HgN/A
7:00 AM64 °FOvercast.8 mph94%30.07 "HgN/A
5:30 AM64 °FMostly cloudy.7 mph94%30.04 "HgN/A
4:30 AM64 °FHeavy rain. Mostly cloudy.10 mph94%30.04 "Hg4 mi
4:00 AM64 °FHeavy rain. Fog.13 mph94%30.04 "Hg2 mi
3:30 AM64 °FPartly cloudy.9 mph94%30.01 "HgN/A
3:00 AM64 °FMostly cloudy.7 mph94%30.01 "HgN/A
2:30 AM64 °FRain. Mostly cloudy.10 mph94%30.01 "HgN/A
2:00 AM66 °FLight rain. Partly cloudy.12 mph94%30.01 "HgN/A
1:30 AM66 °FLight rain. Mostly cloudy.8 mph94%30.01 "Hg5 mi
1:00 AM66 °FLight rain. Overcast.6 mph94%30.01 "Hg5 mi
11:30 PM
Mon, Aug 31
66 °FPassing clouds.2 mph94%30.01 "HgN/A
11:00 PM64 °FPassing clouds.3 mph100%30.01 "HgN/A
10:30 PM64 °FMostly cloudy.2 mph94%30.01 "HgN/A
10:00 PM64 °FMostly cloudy.3 mph94%30.01 "HgN/A
9:30 PM64 °FMostly cloudy.1 mph94%29.98 "HgN/A
9:00 PM64 °FBroken clouds.No wind94%29.95 "HgN/A
8:30 PM64 °FLight rain. Partly sunny.6 mph94%29.95 "HgN/A
8:00 PM63 °FMostly cloudy.6 mph100%29.98 "HgN/A
7:30 PM63 °FThundershowers. Cloudy.7 mph100%29.92 "HgN/A
7:00 PM63 °FMostly cloudy.8 mph100%30.01 "HgN/A
6:30 PM63 °FStrong thunderstorms. Fog.7 mph94%29.98 "Hg1 mi
6:00 PM63 °FStrong thunderstorms. Fog.36 mph94%29.95 "Hg1 mi
5:30 PM79 °FThunderstorms. Mostly cloudy.7 mph65%29.86 "HgN/A
5:00 PM81 °FThunderstorms. Partly sunny.7 mph62%29.89 "HgN/A
4:30 PM81 °FPartly sunny.5 mph66%29.89 "HgN/A
4:00 PM81 °FOvercast.9 mph66%29.89 "HgN/A
3:30 PM79 °FPartly sunny.7 mph74%29.92 "HgN/A
3:00 PM79 °FThundershowers. More clouds than sun.6 mph74%29.92 "HgN/A
2:30 PM81 °FThunderstorms. Partly sunny.5 mph70%29.92 "HgN/A
2:00 PM79 °FLight rain. Broken clouds.6 mph74%29.92 "HgN/A
Weather by CustomWeather, © 2015

See weather overviewHow to use our weather pages